Time,TemperatureF,DewpointF,PressureIn,WindDirection,WindDirectionDegrees,WindSpeedMPH,WindSpeedGustMPH,Humidity,HourlyPrecipIn,Conditions,Clouds,dailyrainin,SoftwareType,DateUTC
2013-02-03 00:01:00,24.1,17.9,29.95,SSW,203,0.0,0.0,77,0.00,,,0.00,WUHU216HW,2013-02-03 07:01:00,
2013-02-03 00:06:00,24.1,17.9,29.95,SSW,203,0.0,0.4,77,0.00,,,0.00,WUHU216HW,2013-02-03 07:06:00,
2013-02-03 00:11:00,24.1,17.7,29.95,SSW,203,0.0,0.4,76,0.00,,,0.00,WUHU216HW,2013-02-03 07:11:00,
2013-02-03 00:16:00,24.5,17.6,29.94,SSW,203,0.0,0.7,75,0.00,,,0.00,WUHU216HW,2013-02-03 07:16:00,
2013-02-03 00:21:00,24.5,18.0,29.94,SSW,203,0.0,0.7,76,0.00,,,0.00,WUHU216HW,2013-02-03 07:21:00,
2013-02-03 00:26:00,24.5,18.0,29.94,SSW,203,0.0,0.0,76,0.00,,,0.00,WUHU216HW,2013-02-03 07:26:00,
2013-02-03 00:31:00,24.5,18.3,29.94,SSW,203,0.0,0.4,77,0.00,,,0.00,WUHU216HW,2013-02-03 07:31:00,
2013-02-03 00:36:00,24.5,18.3,29.94,SSW,203,0.0,0.4,77,0.00,,,0.00,WUHU216HW,2013-02-03 07:36:00,
2013-02-03 00:41:00,24.1,18.3,29.93,SSW,203,0.0,0.4,78,0.00,,,0.00,WUHU216HW,2013-02-03 07:41:00,
2013-02-03 00:46:00,24.1,18.3,29.93,South,180,0.4,0.4,78,0.00,,,0.00,WUHU216HW,2013-02-03 07:46:00,
2013-02-03 00:51:00,24.1,18.3,29.93,South,180,0.0,0.4,78,0.00,,,0.00,WUHU216HW,2013-02-03 07:51:00,
2013-02-03 00:56:00,24.1,18.3,29.93,SSW,203,0.0,0.4,78,0.00,,,0.00,WUHU216HW,2013-02-03 07:56:00,
2013-02-03 01:01:00,24.1,17.9,29.92,SSW,203,0.0,0.0,77,0.00,,,0.00,WUHU216HW,2013-02-03 08:01:00,
2013-02-03 01:06:00,24.1,17.9,29.92,SSW,203,0.0,0.0,77,0.00,,,0.00,WUHU216HW,2013-02-03 08:06:00,
2013-02-03 01:11:00,24.1,18.3,29.92,SSW,203,0.0,1.6,78,0.00,,,0.00,WUHU216HW,2013-02-03 08:11:00,
2013-02-03 01:16:00,24.1,17.9,29.92,SSW,203,0.0,1.6,77,0.00,,,0.00,WUHU216HW,2013-02-03 08:16:00,
2013-02-03 01:21:00,24.1,17.9,29.92,SSW,203,0.0,1.1,77,0.00,,,0.00,WUHU216HW,2013-02-03 08:21:00,
2013-02-03 01:26:00,24.1,17.9,29.92,SSW,203,0.0,1.1,77,0.00,,,0.00,WUHU216HW,2013-02-03 08:26:00,
2013-02-03 01:31:00,24.1,17.9,29.92,SSW,203,0.0,0.7,77,0.00,,,0.00,WUHU216HW,2013-02-03 08:31:00,
2013-02-03 01:36:00,24.1,17.9,29.92,SSW,203,0.0,0.7,77,0.00,,,0.00,WUHU216HW,2013-02-03 08:36:00,
2013-02-03 01:41:00,24.1,18.3,29.92,South,180,1.1,1.1,78,0.00,,,0.00,WUHU216HW,2013-02-03 08:41:00,
2013-02-03 01:47:00,24.1,18.3,29.91,SSW,203,0.0,1.1,78,0.00,,,0.00,WUHU216HW,2013-02-03 08:47:00,
2013-02-03 01:52:00,23.9,17.8,29.91,SSW,203,0.4,1.1,77,0.00,,,0.00,WUHU216HW,2013-02-03 08:52:00,
2013-02-03 01:57:00,23.9,18.1,29.90,SSW,203,0.0,1.8,78,0.00,,,0.00,WUHU216HW,2013-02-03 08:57:00,
2013-02-03 02:02:00,23.9,18.1,29.90,SW,225,0.0,1.8,78,0.00,,,0.00,WUHU216HW,2013-02-03 09:02:00,
2013-02-03 02:07:00,24.1,18.3,29.91,SSW,203,0.0,1.1,78,0.00,,,0.00,WUHU216HW,2013-02-03 09:07:00,
2013-02-03 02:12:00,24.1,18.5,29.91,SW,225,0.0,1.1,79,0.00,,,0.00,WUHU216HW,2013-02-03 09:12:00,
2013-02-03 02:17:00,23.9,18.4,29.91,SW,225,0.0,0.4,79,0.00,,,0.00,WUHU216HW,2013-02-03 09:17:00,
2013-02-03 02:22:00,23.9,18.4,29.91,WSW,248,0.0,0.4,79,0.00,,,0.00,WUHU216HW,2013-02-03 09:22:00,
2013-02-03 02:27:00,23.9,18.1,29.91,SW,225,0.2,1.1,78,0.00,,,0.00,WUHU216HW,2013-02-03 09:27:00,
2013-02-03 02:32:00,23.9,18.4,29.91,SSW,203,0.7,1.1,79,0.00,,,0.00,WUHU216HW,2013-02-03 09:32:00,
2013-02-03 02:37:00,23.8,18.3,29.91,SSW,203,0.0,1.1,79,0.00,,,0.00,WUHU216HW,2013-02-03 09:37:00,
2013-02-03 02:42:00,23.8,17.9,29.90,SSW,203,0.0,0.9,78,0.00,,,0.00,WUHU216HW,2013-02-03 09:42:00,
2013-02-03 02:47:00,23.8,17.7,29.90,SSW,203,1.1,1.1,77,0.00,,,0.00,WUHU216HW,2013-02-03 09:47:00,
2013-02-03 02:52:00,23.6,17.7,29.89,SSW,203,0.7,1.8,78,0.00,,,0.00,WUHU216HW,2013-02-03 09:52:00,
2013-02-03 02:57:00,23.4,17.6,29.89,SSW,203,0.7,1.8,78,0.00,,,0.00,WUHU216HW,2013-02-03 09:57:00,
2013-02-03 03:02:00,23.2,17.4,29.89,SSW,203,0.0,0.9,78,0.00,,,0.00,WUHU216HW,2013-02-03 10:02:00,
2013-02-03 03:07:00,23.2,17.4,29.89,SSW,203,0.0,0.7,78,0.00,,,0.00,WUHU216HW,2013-02-03 10:07:00,
2013-02-03 03:12:00,23.2,17.1,29.89,SSW,203,0.0,0.4,77,0.00,,,0.00,WUHU216HW,2013-02-03 10:12:00,
2013-02-03 03:17:00,23.0,17.2,29.88,SSW,203,0.0,0.7,78,0.00,,,0.00,WUHU216HW,2013-02-03 10:17:00,
2013-02-03 03:22:00,23.0,17.2,29.88,SSW,203,0.0,0.7,78,0.00,,,0.00,WUHU216HW,2013-02-03 10:22:00,
2013-02-03 03:27:00,23.0,17.2,29.88,South,180,1.1,1.1,78,0.00,,,0.00,WUHU216HW,2013-02-03 10:27:00,
2013-02-03 03:32:00,22.9,17.0,29.88,South,180,0.0,1.1,78,0.00,,,0.00,WUHU216HW,2013-02-03 10:32:00,
2013-02-03 03:37:00,22.9,17.0,29.87,South,180,0.0,1.1,78,0.00,,,0.00,WUHU216HW,2013-02-03 10:37:00,
2013-02-03 03:42:00,22.9,16.8,29.87,South,180,0.0,0.7,77,0.00,,,0.00,WUHU216HW,2013-02-03 10:42:00,
2013-02-03 03:47:00,22.9,16.8,29.87,SSW,203,0.4,0.4,77,0.00,,,0.00,WUHU216HW,2013-02-03 10:47:00,
2013-02-03 03:52:00,22.9,16.8,29.88,SSW,203,0.4,0.7,77,0.00,,,0.00,WUHU216HW,2013-02-03 10:52:00,
2013-02-03 03:57:00,23.0,16.6,29.87,SSW,203,0.0,0.7,76,0.00,,,0.00,WUHU216HW,2013-02-03 10:57:00,
2013-02-03 04:02:00,23.0,16.9,29.87,SSW,203,0.0,0.4,77,0.00,,,0.00,WUHU216HW,2013-02-03 11:02:00,
2013-02-03 04:07:00,23.2,17.1,29.87,WSW,248,0.4,0.4,77,0.00,,,0.00,WUHU216HW,2013-02-03 11:07:00,
2013-02-03 04:12:00,23.4,17.3,29.87,SSW,203,0.4,1.6,77,0.00,,,0.00,WUHU216HW,2013-02-03 11:12:00,
2013-02-03 04:17:00,23.4,17.3,29.87,SSW,203,0.0,1.6,77,0.00,,,0.00,WUHU216HW,2013-02-03 11:17:00,
2013-02-03 04:22:00,23.4,17.3,29.87,SSW,203,0.0,0.7,77,0.00,,,0.00,WUHU216HW,2013-02-03 11:22:00,
2013-02-03 04:27:00,23.2,17.1,29.86,SSW,203,0.4,0.7,77,0.00,,,0.00,WUHU216HW,2013-02-03 11:27:00,
2013-02-03 04:32:00,23.0,16.9,29.87,SSW,203,0.0,0.7,77,0.00,,,0.00,WUHU216HW,2013-02-03 11:32:00,
2013-02-03 04:37:00,22.9,17.0,29.87,SSW,203,0.0,0.7,78,0.00,,,0.00,WUHU216HW,2013-02-03 11:37:00,
2013-02-03 04:42:00,22.7,16.8,29.87,SSW,203,0.4,0.7,78,0.00,,,0.00,WUHU216HW,2013-02-03 11:42:00,
2013-02-03 04:47:00,22.5,16.7,29.87,SSW,203,0.0,0.7,78,0.00,,,0.00,WUHU216HW,2013-02-03 11:47:00,
2013-02-03 04:52:00,22.5,16.4,29.86,SSW,203,0.0,0.7,77,0.00,,,0.00,WUHU216HW,2013-02-03 11:52:00,
2013-02-03 04:57:00,22.5,16.4,29.86,SSW,203,0.0,0.9,77,0.00,,,0.00,WUHU216HW,2013-02-03 11:57:00,
2013-02-03 05:02:00,22.5,16.0,29.85,SSW,203,0.0,0.9,76,0.00,,,0.00,WUHU216HW,2013-02-03 12:02:00,
2013-02-03 05:07:00,22.7,16.6,29.85,South,180,0.0,0.7,77,0.00,,,0.00,WUHU216HW,2013-02-03 12:07:00,
2013-02-03 05:12:00,22.7,16.2,29.85,WSW,248,0.0,1.8,76,0.00,,,0.00,WUHU216HW,2013-02-03 12:12:00,
2013-02-03 05:17:00,22.7,16.6,29.85,SSW,203,0.4,1.8,77,0.00,,,0.00,WUHU216HW,2013-02-03 12:17:00,
2013-02-03 05:22:00,22.7,16.6,29.85,SSW,203,1.1,1.1,77,0.00,,,0.00,WUHU216HW,2013-02-03 12:22:00,
2013-02-03 05:27:00,22.5,16.4,29.85,SSW,203,0.0,1.1,77,0.00,,,0.00,WUHU216HW,2013-02-03 12:27:00,
2013-02-03 05:32:00,22.3,16.2,29.84,WSW,248,0.2,1.8,77,0.00,,,0.00,WUHU216HW,2013-02-03 12:32:00,
2013-02-03 05:37:00,22.7,15.9,29.84,SSW,203,0.0,1.8,75,0.00,,,0.00,WUHU216HW,2013-02-03 12:37:00,
2013-02-03 05:42:00,22.7,16.6,29.84,WSW,248,0.4,1.8,77,0.00,,,0.00,WUHU216HW,2013-02-03 12:42:00,
2013-02-03 05:47:00,22.7,16.6,29.84,SSW,203,0.2,2.5,77,0.00,,,0.00,WUHU216HW,2013-02-03 12:47:00,
2013-02-03 05:52:00,22.9,16.8,29.84,SW,225,0.0,2.5,77,0.00,,,0.00,WUHU216HW,2013-02-03 12:52:00,
2013-02-03 05:57:00,23.0,16.9,29.84,SW,225,0.0,2.5,77,0.00,,,0.00,WUHU216HW,2013-02-03 12:57:00,
2013-02-03 06:02:00,22.7,16.8,29.83,SSW,203,0.0,2.5,78,0.00,,,0.00,WUHU216HW,2013-02-03 13:02:00,
2013-02-03 06:07:00,22.5,16.7,29.83,SSW,203,0.0,2.0,78,0.00,,,0.00,WUHU216HW,2013-02-03 13:07:00,
2013-02-03 06:12:00,22.7,16.6,29.83,SSW,203,0.0,1.3,77,0.00,,,0.00,WUHU216HW,2013-02-03 13:12:00,
2013-02-03 06:17:00,22.7,16.8,29.84,SSW,203,0.0,1.3,78,0.00,,,0.00,WUHU216HW,2013-02-03 13:17:00,
2013-02-03 06:22:00,22.7,16.8,29.84,SSW,203,0.0,2.2,78,0.00,,,0.00,WUHU216HW,2013-02-03 13:22:00,
2013-02-03 06:27:00,22.7,16.8,29.84,South,180,0.0,2.2,78,0.00,,,0.00,WUHU216HW,2013-02-03 13:27:00,
2013-02-03 06:32:00,23.0,16.3,29.84,NNW,338,0.0,2.0,75,0.00,,,0.00,WUHU216HW,2013-02-03 13:32:00,
2013-02-03 06:37:00,23.4,17.3,29.85,NNW,338,0.0,0.4,77,0.00,,,0.00,WUHU216HW,2013-02-03 13:37:00,
2013-02-03 06:42:00,23.0,17.2,29.85,South,180,0.0,1.1,78,0.00,,,0.00,WUHU216HW,2013-02-03 13:42:00,
2013-02-03 06:47:00,22.7,17.2,29.86,South,180,1.8,2.0,79,0.00,,,0.00,WUHU216HW,2013-02-03 13:47:00,
2013-02-03 06:52:00,22.5,16.7,29.85,WSW,248,0.4,2.0,78,0.00,,,0.00,WUHU216HW,2013-02-03 13:52:00,
2013-02-03 06:57:00,22.7,16.6,29.85,WSW,248,0.0,1.8,77,0.00,,,0.00,WUHU216HW,2013-02-03 13:57:00,
2013-02-03 07:02:00,22.7,16.8,29.84,SSW,203,0.0,1.3,78,0.00,,,0.00,WUHU216HW,2013-02-03 14:02:00,
2013-02-03 07:07:00,22.7,16.8,29.84,SW,225,0.0,1.3,78,0.00,,,0.00,WUHU216HW,2013-02-03 14:07:00,
2013-02-03 07:11:00,22.9,17.0,29.84,SSW,203,1.3,1.3,78,0.00,,,0.00,WUHU216HW,2013-02-03 14:11:00,
2013-02-03 07:16:00,22.7,16.8,29.84,WSW,248,0.0,1.3,78,0.00,,,0.00,WUHU216HW,2013-02-03 14:16:00,
2013-02-03 07:21:00,22.9,17.0,29.84,SSW,203,0.0,1.8,78,0.00,,,0.00,WUHU216HW,2013-02-03 14:21:00,
2013-02-03 07:26:00,22.9,16.8,29.84,NNW,338,0.2,1.8,77,0.00,,,0.00,WUHU216HW,2013-02-03 14:26:00,
2013-02-03 07:31:00,22.9,17.0,29.83,SSW,203,0.2,0.9,78,0.00,,,0.00,WUHU216HW,2013-02-03 14:31:00,
2013-02-03 07:36:00,23.0,16.9,29.84,West,270,0.0,0.9,77,0.00,,,0.00,WUHU216HW,2013-02-03 14:36:00,
2013-02-03 07:41:00,23.2,17.1,29.84,West,270,0.4,1.6,77,0.00,,,0.00,WUHU216HW,2013-02-03 14:41:00,
2013-02-03 07:46:00,23.4,17.3,29.84,SW,225,0.0,1.6,77,0.00,,,0.00,WUHU216HW,2013-02-03 14:46:00,
2013-02-03 07:51:00,23.8,17.7,29.84,South,180,1.8,1.8,77,0.00,,,0.00,WUHU216HW,2013-02-03 14:51:00,
2013-02-03 07:56:00,23.8,17.7,29.84,SSW,203,0.4,1.8,77,0.00,,,0.00,WUHU216HW,2013-02-03 14:56:00,
2013-02-03 08:01:00,23.8,17.7,29.85,SSW,203,0.0,1.8,77,0.00,,,0.00,WUHU216HW,2013-02-03 15:01:00,
2013-02-03 08:06:00,23.9,17.8,29.85,SW,225,0.0,0.4,77,0.00,,,0.00,WUHU216HW,2013-02-03 15:06:00,
2013-02-03 08:11:00,24.1,17.9,29.85,SSW,203,0.0,1.1,77,0.00,,,0.00,WUHU216HW,2013-02-03 15:11:00,
2013-02-03 08:16:00,24.1,17.3,29.85,NNW,338,0.4,1.1,75,0.00,,,0.00,WUHU216HW,2013-02-03 15:16:00,
2013-02-03 08:21:00,24.5,18.3,29.85,NNW,338,0.0,0.4,77,0.00,,,0.00,WUHU216HW,2013-02-03 15:21:00,
2013-02-03 08:26:00,24.5,18.3,29.85,NNW,338,0.0,0.4,77,0.00,,,0.00,WUHU216HW,2013-02-03 15:26:00,
2013-02-03 08:31:00,24.3,18.5,29.85,South,180,0.4,1.3,78,0.00,,,0.00,WUHU216HW,2013-02-03 15:31:00,
2013-02-03 08:36:00,24.3,18.5,29.85,SSW,203,0.0,1.3,78,0.00,,,0.00,WUHU216HW,2013-02-03 15:36:00,
2013-02-03 08:41:00,24.3,18.5,29.84,SSW,203,0.0,0.2,78,0.00,,,0.00,WUHU216HW,2013-02-03 15:41:00,
2013-02-03 08:46:00,24.3,18.5,29.84,SSW,203,0.0,0.2,78,0.00,,,0.00,WUHU216HW,2013-02-03 15:46:00,
2013-02-03 08:51:00,24.5,18.6,29.84,SSW,203,0.0,0.9,78,0.00,,,0.00,WUHU216HW,2013-02-03 15:51:00,
2013-02-03 08:56:00,24.3,18.7,29.84,SW,225,0.0,1.8,79,0.00,,,0.00,WUHU216HW,2013-02-03 15:56:00,
2013-02-03 09:01:00,24.5,18.6,29.84,SW,225,0.0,1.8,78,0.00,,,0.00,WUHU216HW,2013-02-03 16:01:00,
2013-02-03 09:06:00,24.8,19.0,29.84,SW,225,0.0,0.7,78,0.00,,,0.00,WUHU216HW,2013-02-03 16:06:00,
2013-02-03 09:11:00,24.8,19.0,29.84,SW,225,0.0,0.7,78,0.00,,,0.00,WUHU216HW,2013-02-03 16:11:00,
2013-02-03 09:16:00,25.0,19.2,29.84,WSW,248,0.0,1.1,78,0.00,,,0.00,WUHU216HW,2013-02-03 16:16:00,
2013-02-03 09:21:00,25.2,19.3,29.85,WSW,248,0.0,1.1,78,0.00,,,0.00,WUHU216HW,2013-02-03 16:21:00,
2013-02-03 09:26:00,25.6,19.6,29.84,SSW,203,0.7,1.1,78,0.00,,,0.00,WUHU216HW,2013-02-03 16:26:00,
2013-02-03 09:31:00,25.7,19.8,29.85,SSW,203,0.0,1.8,78,0.00,,,0.00,WUHU216HW,2013-02-03 16:31:00,
2013-02-03 09:36:00,26.3,20.4,29.85,SW,225,0.0,1.8,78,0.00,,,0.00,WUHU216HW,2013-02-03 16:36:00,
2013-02-03 09:41:00,26.6,20.6,29.84,SSW,203,0.0,1.6,78,0.00,,,0.00,WUHU216HW,2013-02-03 16:41:00,
2013-02-03 09:46:00,26.8,20.8,29.85,SSW,203,0.0,1.1,78,0.00,,,0.00,WUHU216HW,2013-02-03 16:46:00,
2013-02-03 09:51:00,27.0,21.0,29.85,SSW,203,0.0,0.7,78,0.00,,,0.00,WUHU216HW,2013-02-03 16:51:00,
2013-02-03 09:56:00,27.4,21.1,29.85,SW,225,0.0,0.4,77,0.00,,,0.00,WUHU216HW,2013-02-03 16:56:00,
2013-02-03 10:01:00,27.9,21.9,29.85,SW,225,0.0,2.0,78,0.00,,,0.00,WUHU216HW,2013-02-03 17:01:00,
2013-02-03 10:06:00,28.3,22.2,29.85,SSW,203,0.0,2.0,78,0.00,,,0.00,WUHU216HW,2013-02-03 17:06:00,
2013-02-03 10:11:00,28.8,22.8,29.85,NNE,23,0.4,1.8,78,0.00,,,0.00,WUHU216HW,2013-02-03 17:11:00,
2013-02-03 10:16:00,29.2,23.5,29.85,NNE,23,1.1,2.5,79,0.00,,,0.00,WUHU216HW,2013-02-03 17:16:00,
2013-02-03 10:21:00,29.2,23.5,29.85,North,0,0.4,2.5,79,0.00,,,0.00,WUHU216HW,2013-02-03 17:21:00,
2013-02-03 10:26:00,29.7,23.9,29.86,North,0,0.0,1.3,79,0.00,,,0.00,WUHU216HW,2013-02-03 17:26:00,
2013-02-03 10:31:00,30.1,24.3,29.86,SSE,158,0.0,1.1,79,0.00,,,0.00,WUHU216HW,2013-02-03 17:31:00,
2013-02-03 10:36:00,30.6,24.8,29.86,South,180,0.0,0.4,79,0.00,,,0.00,WUHU216HW,2013-02-03 17:36:00,
2013-02-03 10:41:00,31.0,25.2,29.86,South,180,0.9,1.1,79,0.00,,,0.00,WUHU216HW,2013-02-03 17:41:00,
2013-02-03 10:46:00,31.3,25.6,29.86,SSW,203,0.0,1.1,79,0.00,,,0.00,WUHU216HW,2013-02-03 17:46:00,
2013-02-03 10:51:00,31.5,25.5,29.86,South,180,0.0,2.2,78,0.00,,,0.00,WUHU216HW,2013-02-03 17:51:00,
2013-02-03 10:56:00,32.2,26.2,29.86,South,180,0.7,2.2,78,0.00,,,0.00,WUHU216HW,2013-02-03 17:56:00,
2013-02-03 11:01:00,33.1,27.0,29.86,SSW,203,0.0,1.1,78,0.00,,,0.00,WUHU216HW,2013-02-03 18:01:00,
2013-02-03 11:06:00,34.4,27.8,29.87,NNE,23,0.0,1.8,77,0.00,,,0.00,WUHU216HW,2013-02-03 18:06:00,
2013-02-03 11:11:00,35.8,29.3,29.87,NE,45,0.2,1.8,77,0.00,,,0.00,WUHU216HW,2013-02-03 18:11:00,
2013-02-03 11:16:00,37.1,30.3,29.87,NE,45,0.4,1.6,76,0.00,,,0.00,WUHU216HW,2013-02-03 18:16:00,
2013-02-03 11:21:00,38.3,31.4,29.87,SSE,158,0.0,1.3,76,0.00,,,0.00,WUHU216HW,2013-02-03 18:21:00,
2013-02-03 11:26:00,39.4,31.2,29.87,SSW,203,0.4,3.4,72,0.00,,,0.00,WUHU216HW,2013-02-03 18:26:00,
2013-02-03 11:31:00,39.6,29.4,29.87,NE,45,5.4,5.4,67,0.00,,,0.00,WUHU216HW,2013-02-03 18:31:00,
2013-02-03 11:36:00,40.9,30.7,29.87,SSW,203,0.4,5.4,67,0.00,,,0.00,WUHU216HW,2013-02-03 18:36:00,
2013-02-03 11:41:00,41.9,31.0,29.86,NNE,23,0.7,5.4,65,0.00,,,0.00,WUHU216HW,2013-02-03 18:41:00,
2013-02-03 11:46:00,42.5,30.0,29.86,ENE,68,1.8,5.4,61,0.00,,,0.00,WUHU216HW,2013-02-03 18:46:00,
2013-02-03 11:51:00,43.7,30.8,29.86,East,90,2.0,4.0,60,0.00,,,0.00,WUHU216HW,2013-02-03 18:51:00,
2013-02-03 11:56:00,41.4,27.7,29.86,SW,225,2.5,4.0,58,0.00,,,0.00,WUHU216HW,2013-02-03 18:56:00,
2013-02-03 12:01:00,40.0,27.2,29.86,NNW,338,4.9,4.9,60,0.00,,,0.00,WUHU216HW,2013-02-03 19:01:00,
2013-02-03 12:06:00,38.9,27.3,29.86,SSE,158,2.5,4.9,63,0.00,,,0.00,WUHU216HW,2013-02-03 19:06:00,
2013-02-03 12:11:00,39.8,27.7,29.85,South,180,2.2,4.9,62,0.00,,,0.00,WUHU216HW,2013-02-03 19:11:00,
2013-02-03 12:16:00,41.6,29.5,29.85,NNW,338,0.4,2.7,62,0.00,,,0.00,WUHU216HW,2013-02-03 19:16:00,
2013-02-03 12:21:00,42.5,28.7,29.84,SSE,158,1.8,3.8,58,0.00,,,0.00,WUHU216HW,2013-02-03 19:21:00,
2013-02-03 12:26:00,42.7,28.0,29.85,South,180,3.8,4.9,56,0.00,,,0.00,WUHU216HW,2013-02-03 19:26:00,
2013-02-03 12:31:00,41.4,27.3,29.85,East,90,2.5,4.9,57,0.00,,,0.00,WUHU216HW,2013-02-03 19:31:00,
2013-02-03 12:36:00,40.0,26.7,29.85,SSW,203,0.7,4.3,59,0.00,,,0.00,WUHU216HW,2013-02-03 19:36:00,
2013-02-03 12:41:00,39.1,26.3,29.85,SSE,158,2.5,4.3,60,0.00,,,0.00,WUHU216HW,2013-02-03 19:41:00,
2013-02-03 12:46:00,38.3,26.4,29.85,SW,225,0.7,4.0,62,0.00,,,0.00,WUHU216HW,2013-02-03 19:46:00,
2013-02-03 12:51:00,37.8,26.3,29.85,ESE,113,0.4,4.0,63,0.00,,,0.00,WUHU216HW,2013-02-03 19:51:00,
2013-02-03 12:56:00,37.6,26.1,29.85,South,180,0.7,2.9,63,0.00,,,0.00,WUHU216HW,2013-02-03 19:56:00,
2013-02-03 13:01:00,37.4,26.4,29.85,SSW,203,0.4,2.5,64,0.00,,,0.00,WUHU216HW,2013-02-03 20:01:00,
2013-02-03 13:06:00,38.0,26.8,29.85,SSW,203,0.2,3.4,64,0.00,,,0.00,WUHU216HW,2013-02-03 20:06:00,
2013-02-03 13:11:00,39.2,28.0,29.84,East,90,3.1,3.4,64,0.00,,,0.00,WUHU216HW,2013-02-03 20:11:00,
2013-02-03 13:16:00,39.8,28.2,29.84,South,180,1.1,4.5,63,0.00,,,0.00,WUHU216HW,2013-02-03 20:16:00,
2013-02-03 13:21:00,39.2,27.6,29.84,NE,45,1.1,4.5,63,0.00,,,0.00,WUHU216HW,2013-02-03 20:21:00,
2013-02-03 13:26:00,39.2,27.6,29.84,SSE,158,1.6,4.0,63,0.00,,,0.00,WUHU216HW,2013-02-03 20:26:00,
2013-02-03 13:31:00,38.9,27.3,29.84,NE,45,4.5,4.5,63,0.00,,,0.00,WUHU216HW,2013-02-03 20:31:00,
2013-02-03 13:36:00,38.7,27.1,29.84,South,180,0.0,4.5,63,0.00,,,0.00,WUHU216HW,2013-02-03 20:36:00,
2013-02-03 13:41:00,39.1,27.5,29.84,North,0,0.4,4.9,63,0.00,,,0.00,WUHU216HW,2013-02-03 20:41:00,
2013-02-03 13:46:00,39.1,27.5,29.84,NNW,338,0.0,4.9,63,0.00,,,0.00,WUHU216HW,2013-02-03 20:46:00,
2013-02-03 13:51:00,39.6,28.0,29.84,North,0,1.1,2.9,63,0.00,,,0.00,WUHU216HW,2013-02-03 20:51:00,
2013-02-03 13:56:00,39.8,27.4,29.83,NNE,23,0.7,4.7,61,0.00,,,0.00,WUHU216HW,2013-02-03 20:56:00,
2013-02-03 14:01:00,39.2,26.8,29.84,SSE,158,0.0,4.7,61,0.00,,,0.00,WUHU216HW,2013-02-03 21:01:00,
2013-02-03 14:06:00,38.9,27.3,29.84,WSW,248,0.0,4.0,63,0.00,,,0.00,WUHU216HW,2013-02-03 21:06:00,
2013-02-03 14:11:00,38.5,26.9,29.83,NNE,23,0.0,3.1,63,0.00,,,0.00,WUHU216HW,2013-02-03 21:11:00,
2013-02-03 14:16:00,38.2,27.0,29.83,NNE,23,1.8,2.5,64,0.00,,,0.00,WUHU216HW,2013-02-03 21:16:00,
2013-02-03 14:21:00,38.2,26.7,29.83,North,0,0.4,2.5,63,0.00,,,0.00,WUHU216HW,2013-02-03 21:21:00,
2013-02-03 14:26:00,38.0,27.2,29.83,North,0,0.0,2.0,65,0.00,,,0.00,WUHU216HW,2013-02-03 21:26:00,
2013-02-03 14:31:00,37.8,27.1,29.82,North,0,0.2,1.1,65,0.00,,,0.00,WUHU216HW,2013-02-03 21:31:00,
2013-02-03 14:36:00,38.0,27.2,29.82,ENE,68,0.7,1.8,65,0.00,,,0.00,WUHU216HW,2013-02-03 21:36:00,
2013-02-03 14:41:00,38.2,27.0,29.82,ENE,68,1.8,3.6,64,0.00,,,0.00,WUHU216HW,2013-02-03 21:41:00,
2013-02-03 14:46:00,38.3,27.2,29.82,NNW,338,0.0,3.6,64,0.00,,,0.00,WUHU216HW,2013-02-03 21:46:00,
2013-02-03 14:51:00,38.5,27.7,29.82,SW,225,0.0,1.8,65,0.00,,,0.00,WUHU216HW,2013-02-03 21:51:00,
2013-02-03 14:56:00,38.5,27.7,29.82,North,0,0.4,2.2,65,0.00,,,0.00,WUHU216HW,2013-02-03 21:56:00,
2013-02-03 15:01:00,38.5,27.7,29.82,NE,45,0.0,4.0,65,0.00,,,0.00,WUHU216HW,2013-02-03 22:01:00,
2013-02-03 15:06:00,38.9,27.6,29.82,NE,45,0.2,4.0,64,0.00,,,0.00,WUHU216HW,2013-02-03 22:06:00,
2013-02-03 15:11:00,39.1,27.5,29.81,SSW,203,2.9,3.8,63,0.00,,,0.00,WUHU216HW,2013-02-03 22:11:00,
2013-02-03 15:16:00,38.9,27.3,29.82,NE,45,0.9,3.4,63,0.00,,,0.00,WUHU216HW,2013-02-03 22:16:00,
2013-02-03 15:21:00,38.5,27.4,29.82,East,90,0.2,2.5,64,0.00,,,0.00,WUHU216HW,2013-02-03 22:21:00,
2013-02-03 15:26:00,38.2,27.0,29.82,SSE,158,0.0,2.5,64,0.00,,,0.00,WUHU216HW,2013-02-03 22:26:00,
2013-02-03 15:31:00,37.8,26.6,29.82,NNW,338,0.2,3.8,64,0.00,,,0.00,WUHU216HW,2013-02-03 22:31:00,
2013-02-03 15:36:00,37.4,26.7,29.81,North,0,0.0,3.8,65,0.00,,,0.00,WUHU216HW,2013-02-03 22:36:00,
2013-02-03 15:41:00,37.1,26.4,29.81,ESE,113,0.0,2.2,65,0.00,,,0.00,WUHU216HW,2013-02-03 22:41:00,
2013-02-03 15:46:00,37.1,26.0,29.82,SSE,158,1.8,2.5,64,0.00,,,0.00,WUHU216HW,2013-02-03 22:46:00,
2013-02-03 15:51:00,37.3,26.6,29.81,ENE,68,2.0,2.5,65,0.00,,,0.00,WUHU216HW,2013-02-03 22:51:00,
2013-02-03 15:56:00,37.1,27.2,29.82,North,0,0.0,2.0,67,0.00,,,0.00,WUHU216HW,2013-02-03 22:56:00,
2013-02-03 16:01:00,36.9,27.0,29.82,ESE,113,1.3,4.0,67,0.00,,,0.00,WUHU216HW,2013-02-03 23:01:00,
2013-02-03 16:06:00,36.7,26.8,29.82,North,0,0.9,4.0,67,0.00,,,0.00,WUHU216HW,2013-02-03 23:06:00,
2013-02-03 16:11:00,36.7,26.8,29.82,North,0,0.4,1.8,67,0.00,,,0.00,WUHU216HW,2013-02-03 23:11:00,
2013-02-03 16:16:00,36.7,26.8,29.82,WNW,293,0.4,1.8,67,0.00,,,0.00,WUHU216HW,2013-02-03 23:16:00,
2013-02-03 16:21:00,36.5,26.7,29.82,NNW,338,0.0,4.0,67,0.00,,,0.00,WUHU216HW,2013-02-03 23:21:00,
2013-02-03 16:26:00,36.5,26.7,29.82,SSE,158,0.2,4.3,67,0.00,,,0.00,WUHU216HW,2013-02-03 23:26:00,
2013-02-03 16:31:00,36.4,26.5,29.82,North,0,0.2,4.3,67,0.00,,,0.00,WUHU216HW,2013-02-03 23:31:00,
2013-02-03 16:36:00,36.2,26.3,29.82,North,0,0.4,3.1,67,0.00,,,0.00,WUHU216HW,2013-02-03 23:36:00,
2013-02-03 16:41:00,35.8,26.3,29.82,SSW,203,0.0,1.8,68,0.00,,,0.00,WUHU216HW,2013-02-03 23:41:00,
2013-02-03 16:46:00,35.6,26.5,29.82,North,0,0.0,0.7,69,0.00,,,0.00,WUHU216HW,2013-02-03 23:46:00,
2013-02-03 16:51:00,35.1,25.9,29.82,North,0,0.0,0.7,69,0.00,,,0.00,WUHU216HW,2013-02-03 23:51:00,
2013-02-03 16:56:00,34.9,26.1,29.82,NE,45,1.1,1.1,70,0.00,,,0.00,WUHU216HW,2013-02-03 23:56:00,
2013-02-03 17:01:00,34.6,25.7,29.82,NNE,23,0.0,1.1,70,0.00,,,0.00,WUHU216HW,2013-02-04 00:01:00,
2013-02-03 17:06:00,34.2,25.0,29.81,SSW,203,0.0,1.1,69,0.00,,,0.00,WUHU216HW,2013-02-04 00:06:00,
2013-02-03 17:11:00,34.2,25.8,29.81,WNW,293,0.4,0.4,71,0.00,,,0.00,WUHU216HW,2013-02-04 00:11:00,
2013-02-03 17:16:00,33.5,25.0,29.81,North,0,0.2,1.1,71,0.00,,,0.00,WUHU216HW,2013-02-04 00:16:00,
2013-02-03 17:21:00,33.3,24.8,29.81,South,180,0.2,1.1,71,0.00,,,0.00,WUHU216HW,2013-02-04 00:21:00,
2013-02-03 17:26:00,32.9,24.8,29.82,SW,225,0.0,0.9,72,0.00,,,0.00,WUHU216HW,2013-02-04 00:26:00,
2013-02-03 17:31:00,32.6,24.6,29.81,SSW,203,0.9,1.3,72,0.00,,,0.00,WUHU216HW,2013-02-04 00:31:00,
2013-02-03 17:36:00,32.0,24.4,29.82,West,270,0.0,1.3,73,0.00,,,0.00,WUHU216HW,2013-02-04 00:36:00,
2013-02-03 17:41:00,31.9,24.2,29.82,South,180,0.0,4.0,73,0.00,,,0.00,WUHU216HW,2013-02-04 00:41:00,
2013-02-03 17:46:00,31.7,24.0,29.82,SSE,158,0.2,4.0,73,0.00,,,0.00,WUHU216HW,2013-02-04 00:46:00,
2013-02-03 17:51:00,31.7,24.0,29.82,SW,225,0.0,2.2,73,0.00,,,0.00,WUHU216HW,2013-02-04 00:51:00,
2013-02-03 17:56:00,31.7,24.3,29.81,SW,225,0.0,0.9,74,0.00,,,0.00,WUHU216HW,2013-02-04 00:56:00,
2013-02-03 18:01:00,31.5,24.1,29.81,SSW,203,0.0,0.2,74,0.00,,,0.00,WUHU216HW,2013-02-04 01:01:00,
2013-02-03 18:06:00,31.3,23.9,29.82,SSW,203,0.0,0.0,74,0.00,,,0.00,WUHU216HW,2013-02-04 01:06:00,
2013-02-03 18:11:00,30.8,23.8,29.82,West,270,0.0,2.5,75,0.00,,,0.00,WUHU216HW,2013-02-04 01:11:00,
2013-02-03 18:16:00,30.8,23.8,29.82,SSW,203,0.0,2.5,75,0.00,,,0.00,WUHU216HW,2013-02-04 01:16:00,
2013-02-03 18:21:00,30.6,23.6,29.82,South,180,0.9,1.3,75,0.00,,,0.00,WUHU216HW,2013-02-04 01:21:00,
2013-02-03 18:26:00,30.6,24.0,29.82,NNW,338,0.9,2.5,76,0.00,,,0.00,WUHU216HW,2013-02-04 01:26:00,
2013-02-03 18:31:00,30.6,23.6,29.82,WSW,248,0.0,2.5,75,0.00,,,0.00,WUHU216HW,2013-02-04 01:31:00,
2013-02-03 18:36:00,30.6,23.6,29.81,SSW,203,0.9,1.6,75,0.00,,,0.00,WUHU216HW,2013-02-04 01:36:00,
2013-02-03 18:41:00,31.0,23.9,29.81,South,180,0.2,4.0,75,0.00,,,0.00,WUHU216HW,2013-02-04 01:41:00,
2013-02-03 18:46:00,31.0,23.9,29.81,South,180,0.9,4.0,75,0.00,,,0.00,WUHU216HW,2013-02-04 01:46:00,
2013-02-03 18:51:00,30.6,23.6,29.81,SSW,203,0.2,3.4,75,0.00,,,0.00,WUHU216HW,2013-02-04 01:51:00,
2013-02-03 18:56:00,30.4,23.8,29.81,NNW,338,0.2,2.7,76,0.00,,,0.00,WUHU216HW,2013-02-04 01:56:00,
2013-02-03 19:01:00,30.2,23.6,29.81,SSW,203,0.0,2.2,76,0.00,,,0.00,WUHU216HW,2013-02-04 02:01:00,
2013-02-03 19:06:00,29.9,23.2,29.81,South,180,0.9,2.2,76,0.00,,,0.00,WUHU216HW,2013-02-04 02:06:00,
2013-02-03 19:11:00,29.9,22.9,29.81,SSW,203,0.0,1.6,75,0.00,,,0.00,WUHU216HW,2013-02-04 02:11:00,
2013-02-03 19:16:00,29.9,23.5,29.81,NNW,338,0.9,1.3,77,0.00,,,0.00,WUHU216HW,2013-02-04 02:16:00,
2013-02-03 19:21:00,30.6,24.2,29.81,ENE,68,1.6,2.2,77,0.00,,,0.00,WUHU216HW,2013-02-04 02:21:00,
2013-02-03 19:26:00,30.8,24.4,29.81,WSW,248,0.2,2.2,77,0.00,,,0.00,WUHU216HW,2013-02-04 02:26:00,
2013-02-03 19:31:00,30.8,24.4,29.81,SW,225,4.5,4.5,77,0.00,,,0.00,WUHU216HW,2013-02-04 02:31:00,
2013-02-03 19:36:00,31.1,24.5,29.80,North,0,0.0,4.5,76,0.00,,,0.00,WUHU216HW,2013-02-04 02:36:00,
2013-02-03 19:41:00,31.0,24.3,29.80,NNW,338,1.1,1.8,76,0.00,,,0.00,WUHU216HW,2013-02-04 02:41:00,
2013-02-03 19:46:00,30.8,24.1,29.80,SW,225,0.0,1.1,76,0.00,,,0.00,WUHU216HW,2013-02-04 02:46:00,
2013-02-03 19:51:00,30.6,24.0,29.80,WSW,248,0.4,1.8,76,0.00,,,0.00,WUHU216HW,2013-02-04 02:51:00,
2013-02-03 19:56:00,30.6,24.2,29.80,NW,315,0.2,1.8,77,0.00,,,0.00,WUHU216HW,2013-02-04 02:56:00,
2013-02-03 20:01:00,30.4,23.8,29.80,West,270,0.0,0.7,76,0.00,,,0.00,WUHU216HW,2013-02-04 03:01:00,
2013-02-03 20:06:00,30.2,23.9,29.80,NNW,338,0.0,0.4,77,0.00,,,0.00,WUHU216HW,2013-02-04 03:06:00,
2013-02-03 20:11:00,30.2,23.9,29.80,NW,315,0.0,0.4,77,0.00,,,0.00,WUHU216HW,2013-02-04 03:11:00,
2013-02-03 20:16:00,30.2,23.9,29.81,SSW,203,0.0,2.2,77,0.00,,,0.00,WUHU216HW,2013-02-04 03:16:00,
2013-02-03 20:21:00,30.2,23.9,29.80,NNW,338,0.2,2.2,77,0.00,,,0.00,WUHU216HW,2013-02-04 03:21:00,
2013-02-03 20:26:00,30.1,23.7,29.80,South,180,0.0,1.8,77,0.00,,,0.00,WUHU216HW,2013-02-04 03:26:00,
2013-02-03 20:31:00,30.1,23.7,29.80,SSW,203,0.0,1.8,77,0.00,,,0.00,WUHU216HW,2013-02-04 03:31:00,
2013-02-03 20:37:00,30.1,24.0,29.80,SSW,203,0.0,0.4,78,0.00,,,0.00,WUHU216HW,2013-02-04 03:37:00,
2013-02-03 20:42:00,30.2,24.2,29.79,South,180,0.2,1.1,78,0.00,,,0.00,WUHU216HW,2013-02-04 03:42:00,
2013-02-03 20:47:00,30.2,24.2,29.79,ENE,68,4.7,4.7,78,0.00,,,0.00,WUHU216HW,2013-02-04 03:47:00,
2013-02-03 20:51:00,30.8,24.4,29.79,South,180,1.3,4.7,77,0.00,,,0.00,WUHU216HW,2013-02-04 03:51:00,
2013-02-03 20:57:00,30.8,24.4,29.79,WNW,293,0.0,4.7,77,0.00,,,0.00,WUHU216HW,2013-02-04 03:57:00,
2013-02-03 21:02:00,30.6,24.6,29.79,SE,135,0.2,3.4,78,0.00,,,0.00,WUHU216HW,2013-02-04 04:02:00,
2013-02-03 21:06:00,31.0,24.6,29.79,North,0,0.0,3.4,77,0.00,,,0.00,WUHU216HW,2013-02-04 04:06:00,
2013-02-03 21:12:00,31.1,24.8,29.79,South,180,1.8,5.6,77,0.00,,,0.00,WUHU216HW,2013-02-04 04:12:00,
2013-02-03 21:17:00,31.3,24.9,29.79,West,270,0.0,5.6,77,0.00,,,0.00,WUHU216HW,2013-02-04 04:17:00,
2013-02-03 21:22:00,31.1,24.8,29.80,WSW,248,0.0,1.8,77,0.00,,,0.00,WUHU216HW,2013-02-04 04:22:00,
2013-02-03 21:27:00,31.0,24.6,29.80,South,180,0.9,1.6,77,0.00,,,0.00,WUHU216HW,2013-02-04 04:27:00,
2013-02-03 21:32:00,31.1,24.8,29.79,NNE,23,0.0,1.6,77,0.00,,,0.00,WUHU216HW,2013-02-04 04:32:00,
2013-02-03 21:37:00,31.3,24.9,29.79,North,0,0.4,2.2,77,0.00,,,0.00,WUHU216HW,2013-02-04 04:37:00,
2013-02-03 21:42:00,31.5,25.1,29.79,NNW,338,0.0,2.2,77,0.00,,,0.00,WUHU216HW,2013-02-04 04:42:00,
2013-02-03 21:47:00,31.7,25.3,29.79,SSW,203,0.2,1.1,77,0.00,,,0.00,WUHU216HW,2013-02-04 04:47:00,
2013-02-03 21:52:00,32.0,25.4,29.79,SSW,203,0.7,6.7,76,0.00,,,0.00,WUHU216HW,2013-02-04 04:52:00,
2013-02-03 21:57:00,32.2,25.5,29.79,North,0,0.4,6.7,76,0.00,,,0.00,WUHU216HW,2013-02-04 04:57:00,
2013-02-03 22:00:00,32.0,25.4,29.78,WNW,293,0.4,6.7,76,0.00,,,0.00,WUHU216HW,2013-02-04 05:00:00,
2013-02-03 22:01:00,32.2,25.5,29.78,NW,315,0.0,6.7,76,0.00,,,0.00,WUHU216HW,2013-02-04 05:01:00,
2013-02-03 22:02:00,32.2,25.5,29.78,NW,315,0.0,1.8,76,0.00,,,0.00,WUHU216HW,2013-02-04 05:02:00,
2013-02-03 22:03:00,32.2,25.5,29.79,North,0,1.3,1.8,76,0.00,,,0.00,WUHU216HW,2013-02-04 05:03:00,
2013-02-03 22:08:00,32.2,25.5,29.78,WNW,293,1.1,4.9,76,0.00,,,0.00,WUHU216HW,2013-02-04 05:08:00,
2013-02-03 22:13:00,32.4,25.7,29.78,SSW,203,0.7,4.9,76,0.00,,,0.00,WUHU216HW,2013-02-04 05:13:00,
2013-02-03 22:18:00,32.2,25.5,29.78,SW,225,0.0,2.5,76,0.00,,,0.00,WUHU216HW,2013-02-04 05:18:00,
2013-02-03 22:23:00,32.0,25.4,29.78,NNW,338,0.0,2.5,76,0.00,,,0.00,WUHU216HW,2013-02-04 05:23:00,
2013-02-03 22:28:00,31.9,25.2,29.78,WSW,248,0.0,2.5,76,0.00,,,0.00,WUHU216HW,2013-02-04 05:28:00,
2013-02-03 22:33:00,31.5,25.1,29.78,South,180,1.8,2.2,77,0.00,,,0.00,WUHU216HW,2013-02-04 05:33:00,
2013-02-03 22:38:00,31.3,24.7,29.78,SW,225,0.0,1.8,76,0.00,,,0.00,WUHU216HW,2013-02-04 05:38:00,
2013-02-03 22:43:00,31.1,24.8,29.78,SSW,203,0.0,1.8,77,0.00,,,0.00,WUHU216HW,2013-02-04 05:43:00,
2013-02-03 22:48:00,31.1,24.8,29.77,South,180,0.7,1.6,77,0.00,,,0.00,WUHU216HW,2013-02-04 05:48:00,
2013-02-03 22:53:00,31.0,24.6,29.77,SW,225,0.0,1.6,77,0.00,,,0.00,WUHU216HW,2013-02-04 05:53:00,
2013-02-03 22:58:00,30.8,24.8,29.78,SW,225,0.0,1.6,78,0.00,,,0.00,WUHU216HW,2013-02-04 05:58:00,
2013-02-03 23:03:00,30.6,24.2,29.78,West,270,0.0,0.0,77,0.00,,,0.00,WUHU216HW,2013-02-04 06:03:00,
2013-02-03 23:08:00,30.6,24.6,29.78,SSW,203,0.2,1.1,78,0.00,,,0.00,WUHU216HW,2013-02-04 06:08:00,
2013-02-03 23:13:00,31.0,24.9,29.78,NNE,23,0.4,5.1,78,0.00,,,0.00,WUHU216HW,2013-02-04 06:13:00,
2013-02-03 23:18:00,31.3,24.9,29.78,SSE,158,0.0,5.1,77,0.00,,,0.00,WUHU216HW,2013-02-04 06:18:00,
2013-02-03 23:23:00,30.8,24.4,29.77,South,180,0.0,1.8,77,0.00,,,0.00,WUHU216HW,2013-02-04 06:23:00,
2013-02-03 23:28:00,30.4,24.4,29.77,West,270,0.4,1.8,78,0.00,,,0.00,WUHU216HW,2013-02-04 06:28:00,
2013-02-03 23:33:00,30.1,24.0,29.77,NE,45,1.1,1.1,78,0.00,,,0.00,WUHU216HW,2013-02-04 06:33:00,
2013-02-03 23:38:00,29.9,23.9,29.77,SSW,203,0.0,1.1,78,0.00,,,0.00,WUHU216HW,2013-02-04 06:38:00,
2013-02-03 23:43:00,29.9,23.5,29.77,NNW,338,0.7,1.1,77,0.00,,,0.00,WUHU216HW,2013-02-04 06:43:00,
2013-02-03 23:48:00,29.7,23.3,29.77,WSW,248,0.0,3.1,77,0.00,,,0.00,WUHU216HW,2013-02-04 06:48:00,
2013-02-03 23:53:00,29.7,23.3,29.77,NNW,338,0.0,3.1,77,0.00,,,0.00,WUHU216HW,2013-02-04 06:53:00,
2013-02-03 23:58:00,29.9,23.9,29.77,NW,315,0.0,2.7,78,0.00,,,0.00,WUHU216HW,2013-02-04 06:58:00,